リニア彗星

418P/LINEAR (2021)

English version
Home page
Updated on August 1, 2021

---------------------------------------------------------------------

・ プロフィール

符号 418P/2020 Y5
検出日 2020年12月23日
検出光度 21.7等
検出者 Pan-STARRS 2 telescope (Haleakala)

・ 写真集

・ 軌道要素

Epoch 2021 Nov. 2.0 TT = JDT 2459520.5
T 2021 Oct. 17.56674 TT                                 Rudenko
q   1.7028932            (2000.0)            P               Q
n   0.08609260     Peri.  307.10064     -0.70604535     +0.70105468
a   5.0795529      Node   277.65725     -0.61346496     -0.67610804
e   0.6647553      Incl.    5.79746     -0.35378059     -0.22671624
P  11.4
From 740 observations 2010 Jan. 14-2021 May 1, mean residual 0".6.

・ 光度変化

        m1 = 11.0 + 5 logΔ + 16.0 log r(t + 20)

---------------------------------------------------------------------

軌道要素はM.P.E.C. 2021-J28に掲載されたものです。
光度グラフはComet for Windowsで作成したものです。

---------------------------------------------------------------------

Copyright(C) Seiichi Yoshida (comet@aerith.net). All rights reserved.